This is the latest recevied weather packets stored in our database for station/object W4SMH. If no packets are shown the sender has not sent any weather packets the latest 10 day(s).
| Time | Temp. | Humidity | Pressure | Rain* | Wind** | Luminosity | Snow |
|---|---|---|---|---|---|---|---|
| 1777817910 | 13.33° C | 60% | 1009.5 hPa | 0 mm | - | 304 W/m² | - |
| 1777817344 | 12.78° C | 60% | 1009.7 hPa | 0 mm | - | 613 W/m² | - |
| 1777817313 | 12.78° C | 60% | 1009.8 hPa | 0 mm | - | 626 W/m² | - |
| 1777817218 | 12.78° C | 59% | 1009.8 hPa | 0 mm | - | 587 W/m² | - |
| 1777816688 | 12.78° C | 59% | 1009.9 hPa | 0 mm | - | 531 W/m² | - |
| 1777816004 | 12.22° C | 60% | 1010.3 hPa | 0 mm | - | 499 W/m² | - |
| 1777815913 | 12.22° C | 60% | 1010.1 hPa | 0 mm | - | 490 W/m² | - |
| 1777815822 | 11.67° C | 60% | 1010.3 hPa | 0 mm | - | 478 W/m² | - |
| 1777814645 | 11.11° C | 61% | 1010.5 hPa | 0 mm | - | 388 W/m² | - |
| 1777814002 | 10.56° C | 62% | 1010.4 hPa | 0 mm | - | 364 W/m² | - |
| 1777813761 | 10.56° C | 61% | 1010.1 hPa | 0 mm | - | 352 W/m² | - |
| 1777812167 | 9.44° C | 62% | 1010.3 hPa | 0 mm | - | 304 W/m² | - |
| 1777811796 | 9.44° C | 61% | 1010.3 hPa | 0 mm | - | 301 W/m² | - |
| 1777811713 | 9.44° C | 62% | 1010.4 hPa | 0 mm | - | 163 W/m² | - |
| 1777811678 | 9.44° C | 62% | 1010.4 hPa | 0 mm | - | 146 W/m² | - |
| 1777811001 | 8.89° C | 64% | 1010.4 hPa | 0 mm | - | 158 W/m² | - |
| 1777810809 | 8.89° C | 63% | 1010.4 hPa | 0 mm | - | 162 W/m² | - |
| 1777810252 | 8.89° C | 63% | 1010.5 hPa | 0 mm | - | 95 W/m² | - |
| 1777810183 | 8.89° C | 63% | 1010.4 hPa | 0 mm | - | 118 W/m² | - |
| 1777810065 | 8.89° C | 63% | 1010.5 hPa | 0 mm | - | 77 W/m² | - |
| 1777809840 | 8.33° C | 63% | 1010.5 hPa | 0 mm | - | 44 W/m² | - |
| 1777809785 | 8.33° C | 63% | 1010.4 hPa | 0 mm | - | 49 W/m² | - |
| 1777809750 | 8.33° C | 64% | 1010.5 hPa | 0 mm | - | 42 W/m² | - |
| 1777809043 | 8.33° C | 63% | 1010.3 hPa | 0 mm | - | 42 W/m² | - |
| 1777808831 | 8.33° C | 63% | 1010.4 hPa | 0 mm | - | 37 W/m² | - |
* Rain latest hour (hover to see other rain measurements)
** Current wind speed in m/s (hover to see current wind gust speed)